Weather History for KFMN - November, 2012

Change the Weather History Date:

Wednesday, November 21, 2012

  Actual Average Record
Temperature  
Mean Temperature 45 °F -  
Max Temperature 62 °F 49 °F 63 °F (2006)
Min Temperature 28 °F 24 °F 16 °F (1993)
Degree Days  
Heating Degree Days 20    
Moisture  
Dew Point 18 °F    
Average Humidity 42    
Maximum Humidity 67    
Minimum Humidity 9    
Precipitation  
Precipitation 0.00 in - - ()
Sea Level Pressure  
Sea Level Pressure 30.19 in    
Wind  
Wind Speed 7 mph (East)    
Max Wind Speed 10 mph    
Max Gust Speed -    
Visibility 10 miles    
Events      
Averages and records for this station are not official NWS values.
T = Trace of Precipitation, MM = Missing Value Source: NWS Daily Summary

Daily Weather History Graph

Daily Weather History Graph

Search for Another Location

Airport or City:

Trip Planner

Search our weather history database for the weather conditions in past years. The results will help you decide how hot, cold, wet, or windy it might be!

Date:

Astronomy

Nov. 21, 2012 Rise Set
Actual Time 6:57 AM MST 4:59 PM MST
Civil Twilight 6:29 AM MST 5:27 PM MST
Nautical Twilight 5:58 AM MST 5:59 PM MST
Astronomical Twilight 5:27 AM MST 6:30 PM MST
Moon 1:09 PM MST (11/21) 12:29 AM MST (11/21)
Length of Visible Light 10h 58m
Length of Day
10h 02m
Waxing Gibbous, 62% of the Moon is Illuminated
Nov 21
Waxing Gibbous
Nov 28
Full
Dec 6
Last Quarter
Dec 13
New
Dec 19
First Quarter

Hourly Weather History & Observations

Time (MST) Temp. Windchill Dew Point Humidity Pressure Visibility Wind Dir Wind Speed Gust Speed Precip Events Conditions
12:53 AM 32.0 °F 25.6 °F 19.9 °F 61% 30.24 in 10.0 mi ENE 6.9 mph - N/A   Clear
1:53 AM 34.0 °F 26.0 °F 21.0 °F 59% 30.22 in 10.0 mi East 10.4 mph - N/A   Clear
2:53 AM 32.0 °F 24.2 °F 21.0 °F 64% 30.22 in 10.0 mi East 9.2 mph - N/A   Clear
3:53 AM 30.0 °F 23.2 °F 19.9 °F 66% 30.21 in 10.0 mi East 6.9 mph - N/A   Clear
4:53 AM 30.0 °F 21.7 °F 19.9 °F 66% 30.22 in 10.0 mi East 9.2 mph - N/A   Clear
5:53 AM 30.0 °F 21.7 °F 19.9 °F 66% 30.26 in 10.0 mi ESE 9.2 mph - N/A   Clear
6:53 AM 28.9 °F 20.4 °F 19.0 °F 67% 30.29 in 10.0 mi ESE 9.2 mph - N/A   Clear
7:53 AM 32.0 °F 24.8 °F 19.9 °F 61% 30.31 in 10.0 mi East 8.1 mph - N/A   Clear
8:53 AM 36.0 °F 29.6 °F 21.0 °F 55% 30.31 in 10.0 mi ESE 8.1 mph - N/A   Clear
9:53 AM 42.1 °F 37.1 °F 23.0 °F 47% 30.28 in 10.0 mi ESE 8.1 mph - N/A   Clear
10:53 AM 51.1 °F - 21.0 °F 31% 30.23 in 10.0 mi SE 10.4 mph - N/A   Clear
11:53 AM 55.0 °F - 16.0 °F 22% 30.17 in 10.0 mi SE 4.6 mph - N/A   Clear
12:53 PM 59.0 °F - 16.0 °F 19% 30.14 in 10.0 mi ESE 4.6 mph - N/A   Clear
2:53 PM 61.0 °F - 15.1 °F 17% 30.09 in 10.0 mi Calm Calm - N/A   Clear
3:53 PM 60.1 °F - 15.1 °F 17% 30.08 in 10.0 mi Calm Calm - N/A   Clear
4:53 PM 57.9 °F - 15.1 °F 19% 30.09 in 10.0 mi Calm Calm - N/A   Clear
5:53 PM 48.9 °F - 16.0 °F 27% 30.12 in 10.0 mi North 3.5 mph - N/A   Clear
6:53 PM 42.1 °F 40.2 °F 17.1 °F 37% 30.16 in 10.0 mi East 3.5 mph - N/A   Clear
7:53 PM 42.1 °F 37.7 °F 16.0 °F 35% 30.17 in 10.0 mi North 6.9 mph - N/A   Clear
8:53 PM 37.0 °F 34.5 °F 16.0 °F 42% 30.17 in 10.0 mi NNE 3.5 mph - N/A   Clear
9:53 PM 35.1 °F 30.1 °F 16.0 °F 46% 30.17 in 10.0 mi ENE 5.8 mph - N/A   Clear
10:53 PM 33.1 °F 26.9 °F 16.0 °F 50% 30.14 in 10.0 mi ENE 6.9 mph - N/A   Clear
11:53 PM 30.9 °F 26.2 °F 16.0 °F 54% 30.14 in 10.0 mi ENE 4.6 mph - N/A   Clear